User: anonymous   Login
Location: Pine Mountain Observatory
(43.7910°N, 120.9377°W)
Time: 12:49:52
(UTC-07:00)
Language:

Cosmos 1867 - Orbit

View from above orbital plane
View from above orbital plane
View from above satellite
View from above satellite

Ground track
Ground track

The orbit data is extracted from the following two-line orbital elements,

1 18187U 87060A   15117.94451945  .00000005  00000-0  39747-4 0  9991
2 18187 065.0108 255.1435 0014969 280.2272 079.7124 14.31053418452207
Epoch (UTC): 27 April 2015 22:40:06
Eccentricity: 0.0014969
inclination: 65.0108°
perigee height: 777 km
apogee height: 799 km
right ascension of ascending node: 255.1435°
argument of perigee: 280.2272°
revolutions per day: 14.31053418
mean anomaly at epoch: 79.7124°
orbit number at epoch: 45220

The dashed part of the orbit path shows where the satellite is in the earth's shadow,  

DLR